EJM770 KSNA-KBOI

Flight info

Callsign EJM770
Flight time N/A
Altitude 43000
Route HHERO3 EHF FMG/N0493F450 PRNCS SADYL4
Aircraft C750/M-SBDE3FGHRWXY/S

Departure

Time 2026-05-05 03:40
Airport John Wayne Orange County International Airport (KSNA)

Arrival

Time N/A
Airport Boise Air Terminal/Gowen Field (KBOI)
Time Latitude Longitude Altitude Speed Heading
2026-05-05 03:06 33.67154 -117.86744 53 ft 0 kts 207°
2026-05-05 03:31 33.67156 -117.86743 53 ft 0 kts 207°
2026-05-05 03:32 33.67171 -117.86733 49 ft 2 kts 207°
2026-05-05 03:32 33.67187 -117.86724 53 ft 2 kts 207°
2026-05-05 03:33 33.67191 -117.86721 53 ft 0 kts 207°
2026-05-05 03:33 33.67190 -117.86721 53 ft 0 kts 207°
2026-05-05 03:33 33.67184 -117.86726 52 ft 3 kts 208°
2026-05-05 03:34 33.67179 -117.86749 53 ft 4 kts 287°
2026-05-05 03:34 33.67182 -117.86756 49 ft 1 kts 298°
2026-05-05 03:34 33.67186 -117.86766 49 ft 3 kts 298°
2026-05-05 03:34 33.67191 -117.86776 53 ft 5 kts 299°
2026-05-05 03:35 33.67229 -117.86799 53 ft 8 kts
2026-05-05 03:35 33.67290 -117.86763 53 ft 12 kts 29°
2026-05-05 03:35 33.67352 -117.86686 50 ft 14 kts 31°
2026-05-05 03:35 33.67449 -117.86625 49 ft 18 kts 27°
2026-05-05 03:36 33.67570 -117.86550 51 ft 22 kts 27°
2026-05-05 03:36 33.67683 -117.86479 51 ft 17 kts 26°
2026-05-05 03:36 33.67787 -117.86419 49 ft 16 kts 27°
2026-05-05 03:36 33.67881 -117.86359 51 ft 15 kts 29°
2026-05-05 03:37 33.67946 -117.86317 49 ft 5 kts 15°
2026-05-05 03:37 33.67971 -117.86322 47 ft 0 kts 333°
2026-05-05 03:37 33.67978 -117.86327 49 ft 4 kts 323°
2026-05-05 03:37 33.67994 -117.86352 51 ft 0 kts 301°
2026-05-05 03:38 33.67999 -117.86363 51 ft 3 kts 298°
2026-05-05 03:38 33.68019 -117.86413 51 ft 11 kts 296°
2026-05-05 03:38 33.68044 -117.86472 51 ft 1 kts 297°
2026-05-05 03:38 33.68046 -117.86476 51 ft 0 kts 297°
2026-05-05 03:39 33.68047 -117.86478 51 ft 0 kts 297°
2026-05-05 03:39 33.68053 -117.86492 51 ft 8 kts 297°
2026-05-05 03:39 33.68065 -117.86564 51 ft 6 kts 253°
2026-05-05 03:40 33.68035 -117.86592 51 ft 11 kts 202°
2026-05-05 03:40 33.67866 -117.86699 51 ft 65 kts 208°
2026-05-05 03:40 33.67158 -117.87143 84 ft 146 kts 210°
2026-05-05 03:40 33.66269 -117.87722 685 ft 146 kts 211°
2026-05-05 03:41 33.65343 -117.88325 1271 ft 159 kts 209°
2026-05-05 03:41 33.64280 -117.88907 1772 ft 178 kts 200°
2026-05-05 03:41 33.63006 -117.89104 2254 ft 191 kts 187°
2026-05-05 03:41 33.61625 -117.89270 2787 ft 208 kts 188°
2026-05-05 03:42 33.60119 -117.89496 3314 ft 229 kts 189°
2026-05-05 03:42 33.58452 -117.89747 3867 ft 253 kts 189°
2026-05-05 03:42 33.56782 -117.90410 4286 ft 257 kts 214°
2026-05-05 03:42 33.55455 -117.91828 4813 ft 257 kts 225°
2026-05-05 03:43 33.54143 -117.93353 5019 ft 267 kts 225°
2026-05-05 03:43 33.52808 -117.94852 5014 ft 260 kts 224°
2026-05-05 03:43 33.51484 -117.96331 5003 ft 260 kts 225°
2026-05-05 03:43 33.50142 -117.97849 5292 ft 270 kts 224°
2026-05-05 03:44 33.48818 -117.99345 6658 ft 258 kts 224°
2026-05-05 03:44 33.47631 -118.00986 7477 ft 265 kts 238°
2026-05-05 03:44 33.46727 -118.02899 8642 ft 263 kts 241°
2026-05-05 03:44 33.45815 -118.04810 9710 ft 267 kts 239°
2026-05-05 03:45 33.44853 -118.06744 10430 ft 278 kts 239°
2026-05-05 03:45 33.43819 -118.08828 10644 ft 304 kts 239°
2026-05-05 03:45 33.42702 -118.11110 10762 ft 330 kts 239°
2026-05-05 03:45 33.41709 -118.13605 11401 ft 334 kts 252°
2026-05-05 03:46 33.41429 -118.16356 12209 ft 336 kts 269°
2026-05-05 03:46 33.41819 -118.19139 12930 ft 341 kts 281°
2026-05-05 03:46 33.42378 -118.21909 13677 ft 344 kts 281°
2026-05-05 03:46 33.42927 -118.24708 14321 ft 348 kts 281°
2026-05-05 03:47 33.43468 -118.27547 14952 ft 351 kts 280°
2026-05-05 03:47 33.43852 -118.29435 15340 ft 355 kts 282°
2026-05-05 03:47 33.44877 -118.32165 15904 ft 363 kts 295°
2026-05-05 03:47 33.46076 -118.34825 16582 ft 365 kts 294°
2026-05-05 03:48 33.47248 -118.37548 17229 ft 369 kts 293°
2026-05-05 03:48 33.48428 -118.40300 17901 ft 374 kts 294°
2026-05-05 03:48 33.49395 -118.42093 18279 ft 383 kts 303°
2026-05-05 03:48 33.51275 -118.44400 18930 ft 392 kts 315°
2026-05-05 03:49 33.53582 -118.46210 19570 ft 403 kts 328°
2026-05-05 03:49 33.56244 -118.47375 20207 ft 414 kts 342°
2026-05-05 03:49 33.59144 -118.47769 20836 ft 426 kts 356°
2026-05-05 03:49 33.62127 -118.47461 21448 ft 433 kts
2026-05-05 03:50 33.65135 -118.47035 22067 ft 437 kts
2026-05-05 03:50 33.68110 -118.46623 22651 ft 442 kts
2026-05-05 03:50 33.71186 -118.46223 23259 ft 447 kts
2026-05-05 03:50 33.74295 -118.45939 23759 ft 449 kts 356°
2026-05-05 03:51 33.77431 -118.45968 24222 ft 453 kts 355°
2026-05-05 03:51 33.80602 -118.45975 24685 ft 459 kts 355°
2026-05-05 03:51 33.83817 -118.45957 25131 ft 465 kts 355°
2026-05-05 03:51 33.87070 -118.45954 25588 ft 470 kts 354°
2026-05-05 03:52 33.90360 -118.45972 26051 ft 475 kts 354°
2026-05-05 03:52 33.93638 -118.45981 26510 ft 481 kts 354°
2026-05-05 03:52 33.96947 -118.45978 26965 ft 486 kts 354°
2026-05-05 03:52 34.00298 -118.46028 27389 ft 488 kts 351°
2026-05-05 03:53 34.03178 -118.46436 27783 ft 488 kts 345°
2026-05-05 03:53 34.06463 -118.46972 28284 ft 493 kts 346°
2026-05-05 03:53 34.09897 -118.47477 28765 ft 499 kts 346°
2026-05-05 03:53 34.13206 -118.47958 29188 ft 503 kts 346°
2026-05-05 03:54 34.16544 -118.48477 29643 ft 507 kts 345°
2026-05-05 03:54 34.20016 -118.49033 30115 ft 512 kts 345°
2026-05-05 03:54 34.23551 -118.49577 30503 ft 517 kts 345°
2026-05-05 03:54 34.27119 -118.50110 30909 ft 520 kts 345°
2026-05-05 03:55 34.30696 -118.50658 31464 ft 520 kts 345°
2026-05-05 03:55 34.34275 -118.51218 32059 ft 519 kts 345°
2026-05-05 03:55 34.37848 -118.51774 32573 ft 521 kts 345°
2026-05-05 03:55 34.41300 -118.52304 33112 ft 521 kts 345°
2026-05-05 03:56 34.44873 -118.52851 33678 ft 522 kts 345°
2026-05-05 03:56 34.48476 -118.53411 34209 ft 522 kts 345°
2026-05-05 03:56 34.52078 -118.53972 34748 ft 520 kts 345°
2026-05-05 03:56 34.55654 -118.54524 35338 ft 518 kts 345°
2026-05-05 03:57 34.59228 -118.55077 35929 ft 516 kts 345°
2026-05-05 03:57 34.62778 -118.55631 36517 ft 514 kts 346°
2026-05-05 03:57 34.66321 -118.56184 37110 ft 512 kts 346°
2026-05-05 03:57 34.69840 -118.56730 37710 ft 510 kts 346°
2026-05-05 03:58 34.73357 -118.57276 38275 ft 509 kts 346°
2026-05-05 03:58 34.76866 -118.57823 38836 ft 507 kts 346°
2026-05-05 03:58 34.80364 -118.58370 39336 ft 505 kts 346°
2026-05-05 03:58 34.83844 -118.58915 39848 ft 503 kts 346°
2026-05-05 03:59 34.87304 -118.59454 40350 ft 501 kts 347°
2026-05-05 03:59 34.90757 -118.59993 40838 ft 499 kts 347°
2026-05-05 03:59 34.94186 -118.60530 41340 ft 497 kts 347°
2026-05-05 03:59 34.97574 -118.61218 41775 ft 490 kts 341°
2026-05-05 04:00 35.00758 -118.62452 42098 ft 483 kts 332°
2026-05-05 04:00 35.03722 -118.64277 42550 ft 472 kts 322°
2026-05-05 04:00 35.06342 -118.66600 43019 ft 463 kts 314°
2026-05-05 04:00 35.08776 -118.69223 43003 ft 470 kts 311°
2026-05-05 04:01 35.13877 -118.74484 43009 ft 490 kts 316°
2026-05-05 04:01 35.19235 -118.79830 43009 ft 502 kts 314°
2026-05-05 04:02 35.24605 -118.85377 42994 ft 507 kts 315°
2026-05-05 04:02 35.30048 -118.90858 42998 ft 506 kts 314°
2026-05-05 04:03 35.35421 -118.96393 42991 ft 502 kts 315°